Harlingen, TX

6:36 PM CDT on April 24, 2017 (GMT -0500)
Valley International

Weather History for KHRL - February, 2013

Change the Weather History Date:

Saturday, February 16, 2013

  Actual Average Record
Temperature  
Mean Temperature 56 °F 64 °F  
Max Temperature 68 °F 74 °F 95 °F (1990)
Min Temperature 44 °F 53 °F 32 °F (1888)
Degree Days  
Heating Degree Days 9 4  
Month to date heating degree days 28 77  
Since 1 July heating degree days 327 525  
Cooling Degree Days 0 3  
Month to date cooling degree days 80 39  
Year to date cooling degree days 150 88  
Growing Degree Days 5 (Base 50)    
Moisture  
Dew Point 37 °F    
Average Humidity 51    
Maximum Humidity 76    
Minimum Humidity 26    
Precipitation  
Precipitation T in 0.05 in 2.60 in (1923)
Month to date precipitation 0.20 0.95  
Year to date precipitation 2.74 2.01  
Sea Level Pressure  
Sea Level Pressure 30.36 in    
Wind  
Wind Speed 11 mph (NE)    
Max Wind Speed 23 mph    
Max Gust Speed 29 mph    
Visibility 10 miles    
Events      
T = Trace of Precipitation, MM = Missing Value Source: NWS Daily Summary

Daily Weather History Graph

Daily Weather History Graph

Search for Another Location

Airport or City:

Trip Planner

Search our weather history database for the weather conditions in past years. The results will help you decide how hot, cold, wet, or windy it might be!

Date:

Astronomy

Feb. 16, 2013 Rise Set
Actual Time 7:05 AM CST 6:24 PM CST
Civil Twilight 6:41 AM CST 6:47 PM CST
Nautical Twilight 6:14 AM CST 7:15 PM CST
Astronomical Twilight 5:47 AM CST 7:41 PM CST
Moon 11:01 AM CST (2/16) No Moon Set
Length of Visible Light 12h 06m
Length of Day
11h 19m
Waxing Crescent, 39% of the Moon is Illuminated
Feb 16
Waxing Crescent
Feb 17
First Quarter
Feb 25
Full
Mar 4
Last Quarter
Mar 11
New

Hourly Weather History & Observations

Time (CST) Temp. Windchill Dew Point Humidity Pressure Visibility Wind Dir Wind Speed Gust Speed Precip Events Conditions
12:52 AM 59.0 °F - 48.9 °F 69% 30.26 in 10.0 mi North 6.9 mph - N/A   Overcast
1:52 AM 61.0 °F - 48.0 °F 62% 30.29 in 10.0 mi North 23.0 mph 26.5 mph N/A   Overcast
2:52 AM 57.2 °F - 44.6 °F 63% 30.32 in 10.0 mi NNE 17.3 mph 26.5 mph N/A   Overcast
3:52 AM 55.9 °F - 43.0 °F 62% 30.34 in 10.0 mi North 18.4 mph - 0.00 in   Overcast
4:52 AM 55.0 °F - 42.1 °F 62% 30.36 in 10.0 mi North 12.7 mph 20.7 mph N/A   Overcast
5:52 AM 53.1 °F - 41.0 °F 64% 30.38 in 10.0 mi North 13.8 mph - N/A   Mostly Cloudy
6:52 AM 53.1 °F - 39.0 °F 59% 30.40 in 10.0 mi North 12.7 mph - N/A   Overcast
7:52 AM 52.0 °F - 37.9 °F 59% 30.44 in 10.0 mi North 9.2 mph - N/A   Scattered Clouds
8:52 AM 54.0 °F - 37.0 °F 53% 30.45 in 10.0 mi North 10.4 mph - N/A   Scattered Clouds
9:52 AM 57.9 °F - 37.9 °F 47% 30.46 in 10.0 mi North 11.5 mph - N/A   Partly Cloudy
10:52 AM 60.1 °F - 37.0 °F 42% 30.47 in 10.0 mi North 12.7 mph 24.2 mph N/A   Clear
11:52 AM 63.0 °F - 33.1 °F 33% 30.45 in 10.0 mi North 11.5 mph - N/A   Clear
12:52 PM 64.9 °F - 30.9 °F 28% 30.41 in 10.0 mi NE 9.2 mph 21.9 mph N/A   Clear
1:52 PM 66.9 °F - 30.9 °F 26% 30.37 in 10.0 mi NNE 12.7 mph 19.6 mph N/A   Clear
2:52 PM 66.0 °F - 32.0 °F 28% 30.34 in 10.0 mi ENE 9.2 mph 16.1 mph N/A   Clear
3:52 PM 64.9 °F - 33.1 °F 31% 30.32 in 10.0 mi East 8.1 mph 18.4 mph N/A   Clear
4:52 PM 64.0 °F - 32.0 °F 30% 30.31 in 10.0 mi East 10.4 mph - N/A   Clear
5:52 PM 60.1 °F - 32.0 °F 35% 30.31 in 10.0 mi East 9.2 mph - N/A   Clear
6:52 PM 54.0 °F - 36.0 °F 51% 30.31 in 10.0 mi East 8.1 mph - N/A   Clear
7:52 PM 48.0 °F - 36.0 °F 63% 30.32 in 10.0 mi SE 6.9 mph - N/A   Clear
8:52 PM 46.9 °F - 36.0 °F 66% 30.33 in 10.0 mi South 8.1 mph - N/A   Clear
9:52 PM 45.0 °F 41.2 °F 37.0 °F 74% 30.34 in 10.0 mi South 6.9 mph - N/A   Clear
10:52 PM 44.1 °F - 37.0 °F 76% 30.33 in 10.0 mi North - - N/A   Clear
11:52 PM 44.1 °F 40.1 °F 37.0 °F 76% 30.31 in 10.0 mi SE 6.9 mph - N/A   Clear